[[{"header":{"parameterUnit":"m.s-1","parameterCategory":1,"la1":30.2991,"la2":30.254,"lo1":-89.0895,"lo2":-89.0444,"dy":0.0017,"dx":0.0017,"nx":28,"ny":28,"refTime":"2025-09-06T09:00:00:Z","depth":0,"parameterNumber":2,"parameterNumberName":"U-component_of_WINDS"},"data":[0,0,0,0,0,0,0,0,0,0,0,0,0,0,0,0,0,0,0,0,0,0,0,0,0,0,0,0,0,0,0,0,0,0,0,0,0,0,0,0,0,0,0,0,0,0,0,0,0,0,0,0,0,0,0,0,0,0,-0.1212,-0.1212,0,-0.119,-0.119,-0.1189,-0.117,-0.117,-0.117,-0.117,-0.1147,-0.1147,-0.1146,0,0,0,0,0,0,0,0,0,0,0,0,0,-0.1237,-0.1237,-0.1212,-0.1212,-0.1211,-0.119,-0.119,-0.1189,-0.117,-0.117,-0.117,-0.117,-0.1147,-0.1147,-0.1146,0,0,0,0,0,0,0,0,0,0,0,0,0,-0.1222,-0.1236,-0.1212,-0.1199,-0.1198,-0.119,-0.119,-0.1189,-0.117,-0.117,-0.117,-0.1169,-0.1147,-0.1147,-0.1146,-0.1149,0,0,-0.1145,-0.1144,0,0,0,0,0,0,0,0,-0.1223,-0.1221,-0.1201,-0.12,-0.1199,-0.1182,-0.119,-0.1176,-0.117,-0.1181,-0.117,-0.1169,-0.1159,-0.1158,-0.1154,-0.1148,-0.1147,-0.1144,-0.1144,-0.1144,-0.1144,0,0,0,0,0,0,0,-0.1224,-0.1222,-0.1203,-0.1201,-0.1199,-0.1195,-0.1192,-0.1187,-0.1172,-0.118,-0.1179,-0.1176,-0.1158,-0.1155,-0.1154,-0.1147,-0.1144,-0.1144,-0.1144,-0.1143,-0.1141,-0.1141,0,0,0,0,0,0,-0.1227,-0.1223,-0.1204,-0.1203,-0.121,-0.1194,-0.1192,-0.1188,-0.1172,-0.1169,-0.1176,-0.1175,-0.1156,-0.1154,-0.1153,-0.1155,-0.1144,-0.1143,-0.1143,-0.1141,-0.1141,-0.1141,0,0,0,0,0,0,-0.1227,-0.1225,-0.1205,-0.1212,-0.1209,-0.1194,-0.119,-0.1188,-0.1184,-0.1169,-0.1167,-0.1176,-0.1156,-0.1154,-0.115,-0.1154,-0.1143,-0.1142,-0.114,-0.1141,-0.1141,-0.1159,0,0,0,0,0,0,-0.1228,-0.1226,-0.1227,-0.1212,-0.1209,-0.1203,-0.1191,-0.1188,-0.1183,-0.1182,-0.1168,-0.1165,-0.1155,-0.1151,-0.1149,-0.1153,-0.1142,-0.114,-0.1141,-0.1141,-0.1158,-0.116,-0.1161,0,0,0,0,0,-0.1229,-0.1233,-0.1227,-0.1225,-0.121,-0.1203,-0.1201,-0.1189,-0.1184,-0.1184,-0.1175,-0.1166,-0.1153,-0.1151,-0.1149,-0.1152,-0.114,-0.114,-0.1141,-0.1157,-0.1159,-0.1161,0,0,0,0,0,0,-0.1248,-0.1231,-0.1224,-0.1223,-0.1215,-0.12,-0.1201,-0.1192,-0.1185,-0.1184,-0.117,-0.1167,-0.1165,-0.1158,-0.1155,-0.1153,-0.1145,-0.1146,-0.1158,-0.116,-0.1162,-0.1164,-0.1142,0,0,0,0,0,-0.1252,-0.1248,-0.1233,-0.1234,-0.123,-0.1216,-0.1212,-0.1204,-0.1195,-0.1191,-0.1181,-0.1172,-0.1166,-0.1163,-0.1157,-0.1156,-0.1153,-0.1158,-0.1159,-0.1161,-0.1162,-0.116,-0.1162,-0.1144,-0.1144,-0.1144,0,0,-0.1261,-0.1251,-0.1249,-0.1237,-0.123,-0.1226,-0.1213,-0.1209,-0.1206,-0.119,-0.1187,-0.1179,-0.1168,-0.1166,-0.1165,-0.116,-0.1166,-0.1162,-0.1163,-0.1163,-0.1161,-0.1163,-0.1165,-0.1144,-0.1144,-0.1144,0,0,-0.1274,-0.1266,-0.1266,-0.1258,-0.1247,-0.1237,-0.1237,-0.1223,-0.1218,-0.1213,-0.1201,-0.1197,-0.1187,-0.118,-0.1175,-0.1184,-0.1176,-0.1182,-0.1192,-0.1191,-0.1193,-0.1194,-0.1197,-0.1199,-0.1183,-0.1183,-0.1183,0,-0.1286,-0.128,-0.1266,-0.1263,-0.1258,-0.1243,-0.1243,-0.1236,-0.1223,-0.122,-0.1215,-0.1202,-0.1193,-0.1189,-0.1192,-0.1188,-0.1187,-0.1184,-0.1194,-0.1195,-0.1196,-0.1199,-0.12,-0.1184,-0.1184,-0.1184,-0.1184,0,-0.1295,-0.1291,-0.1291,-0.1279,-0.1274,-0.1272,-0.1258,-0.1255,-0.1246,-0.1237,-0.1233,-0.1222,-0.1213,-0.1211,-0.1203,-0.1206,-0.1204,-0.1196,-0.1188,-0.1199,-0.1201,-0.1202,-0.1185,-0.1185,-0.1185,-0.1184,0,0,-0.1321,-0.1301,-0.1301,-0.1295,-0.1281,-0.1277,-0.1274,-0.1265,-0.1262,-0.1254,-0.1251,-0.1242,-0.1235,-0.1229,-0.122,-0.1219,-0.1227,-0.1212,-0.1211,-0.1215,-0.1229,-0.1235,-0.1237,-0.1221,-0.1221,-0.1221,-0.123,0,-0.1332,-0.1326,-0.1314,-0.1312,-0.1307,-0.1292,-0.129,-0.128,-0.1272,-0.1266,-0.1256,-0.1251,-0.1242,-0.1238,-0.1237,-0.1226,-0.123,-0.1226,-0.1218,-0.1218,-0.1222,-0.1238,-0.1244,-0.1253,-0.1231,-0.1231,-0.1231,0,-0.1345,-0.1337,-0.1334,-0.132,-0.1317,-0.1315,-0.1306,-0.1301,-0.129,-0.1283,-0.1276,-0.1266,-0.1262,-0.1253,-0.1247,-0.1245,-0.124,-0.1235,-0.1235,-0.1234,-0.1226,-0.1238,-0.1256,-0.1257,-0.1233,-0.1232,-0.1232,0,-0.1364,-0.1353,-0.1349,-0.1345,-0.1328,-0.1326,-0.1319,-0.1308,-0.1303,-0.1294,-0.1291,-0.1282,-0.1277,-0.127,-0.1258,-0.1253,-0.1253,-0.1243,-0.1247,-0.1247,-0.1248,-0.1249,-0.1266,-0.1245,-0.1245,-0.1245,-0.1245,0,-0.1379,-0.1378,-0.1358,-0.1356,-0.1354,-0.1339,-0.1338,-0.1329,-0.1319,-0.1315,-0.1301,-0.1298,-0.1281,-0.1275,-0.1265,-0.1261,-0.1259,-0.1254,-0.1251,-0.1255,-0.1256,-0.1253,-0.1252,-0.1245,-0.1245,-0.1245,-0.1245,0,-0.14,-0.1387,-0.1383,-0.1366,-0.1362,-0.1362,-0.1348,-0.1345,-0.1335,-0.133,-0.1328,-0.1312,-0.1305,-0.1291,-0.128,-0.1273,-0.1271,-0.1266,-0.1275,-0.1274,-0.1278,-0.1278,-0.1295,-0.1296,-0.1274,-0.1274,-0.1274,0,-0.141,-0.1409,-0.1393,-0.1389,-0.1382,-0.1376,-0.1371,-0.1356,-0.1351,-0.1338,-0.1337,-0.1328,-0.1321,-0.1309,-0.1297,-0.1288,-0.1283,-0.1289,-0.1282,-0.1286,-0.1283,-0.1284,-0.1283,-0.1292,-0.1292,-0.1292,-0.1292,0,-0.143,-0.1423,-0.1416,-0.1407,-0.1401,-0.1393,-0.1384,-0.1382,-0.1365,-0.136,-0.1352,-0.1346,-0.1334,-0.1325,-0.1314,-0.1307,-0.1297,-0.1295,-0.1295,-0.13,-0.1305,-0.1302,-0.128,-0.1295,-0.1294,-0.1294,-0.1294,-0.1294,-0.1446,-0.1445,-0.1432,-0.1425,-0.1417,-0.1408,-0.1405,-0.1394,-0.1387,-0.1377,-0.1368,-0.1361,-0.1349,-0.1333,-0.1326,-0.1319,-0.1315,-0.1315,-0.1316,-0.1316,-0.1318,-0.1305,-0.1317,-0.1317,-0.1317,-0.1317,-0.1317,0,-0.1465,-0.1457,-0.145,-0.1438,-0.1432,-0.1422,-0.1412,-0.1407,-0.1401,-0.1391,-0.1383,-0.1374,-0.1365,-0.1352,-0.1342,-0.1339,-0.1335,-0.1337,-0.1338,-0.1336,-0.1322,-0.1323,-0.1342,-0.1342,-0.1342,-0.1342,-0.1342,-0.1342,-0.1475,-0.1471,-0.1463,-0.1454,-0.1445,-0.1438,-0.1433,-0.1425,-0.1417,-0.1407,-0.1399,-0.139,-0.1379,-0.1368,-0.1359,-0.1355,-0.1352,-0.1357,-0.1352,-0.1339,-0.1337,-0.1335,-0.1336,-0.1356,-0.1356,-0.1366,-0.1366,-0.1366]},{"header":{"parameterUnit":"m.s-1","parameterCategory":1,"la1":30.2991,"la2":30.254,"lo1":-89.0895,"lo2":-89.0444,"dy":0.0017,"dx":0.0017,"nx":28,"ny":28,"refTime":"2025-09-06T09:00:00:Z","depth":0,"parameterNumber":3,"parameterNumberName":"V-component_of_WINDS"},"data":[0,0,0,0,0,0,0,0,0,0,0,0,0,0,0,0,0,0,0,0,0,0,0,0,0,0,0,0,0,0,0,0,0,0,0,0,0,0,0,0,0,0,0,0,0,0,0,0,0,0,0,0,0,0,0,0,0,0,-5.0596,-5.0596,0,-5.0626,-5.0626,-5.0627,-5.058,-5.0578,-5.0576,-5.0575,-5.0602,-5.0604,-5.0606,0,0,0,0,0,0,0,0,0,0,0,0,0,-5.0494,-5.0496,-5.0596,-5.0596,-5.0596,-5.0626,-5.0626,-5.0627,-5.058,-5.0578,-5.0576,-5.0574,-5.0601,-5.0603,-5.0606,0,0,0,0,0,0,0,0,0,0,0,0,0,-5.0532,-5.0496,-5.0596,-5.0577,-5.0575,-5.0626,-5.0627,-5.0627,-5.058,-5.0578,-5.0576,-5.0573,-5.06,-5.0603,-5.0607,-5.0676,0,0,-5.0617,-5.0618,0,0,0,0,0,0,0,0,-5.053,-5.0536,-5.0579,-5.0578,-5.0577,-5.0597,-5.06,-5.0643,-5.0581,-5.0578,-5.0575,-5.0572,-5.0602,-5.0605,-5.0616,-5.0677,-5.0678,-5.0617,-5.0619,-5.062,-5.0621,0,0,0,0,0,0,0,-5.0528,-5.0534,-5.0607,-5.058,-5.0578,-5.0566,-5.0568,-5.0608,-5.0603,-5.0578,-5.0575,-5.058,-5.06,-5.0612,-5.0616,-5.0678,-5.0617,-5.062,-5.0622,-5.0623,-5.0799,-5.0802,0,0,0,0,0,0,-5.0528,-5.0533,-5.0607,-5.0608,-5.0547,-5.057,-5.0573,-5.0593,-5.0603,-5.0602,-5.0582,-5.0577,-5.0608,-5.0612,-5.0617,-5.0699,-5.062,-5.0624,-5.0625,-5.0797,-5.08,-5.0803,0,0,0,0,0,0,-5.0526,-5.0535,-5.0605,-5.057,-5.0578,-5.0574,-5.0597,-5.0595,-5.0607,-5.0605,-5.0603,-5.0595,-5.0606,-5.0612,-5.0662,-5.0699,-5.0625,-5.0628,-5.0794,-5.0798,-5.0801,-5.0864,0,0,0,0,0,0,-5.0523,-5.0534,-5.0561,-5.0571,-5.058,-5.0651,-5.0599,-5.0597,-5.0613,-5.0608,-5.0617,-5.0616,-5.0605,-5.0657,-5.0665,-5.0703,-5.0631,-5.079,-5.0795,-5.08,-5.0859,-5.087,-5.088,0,0,0,0,0,-5.0519,-5.0576,-5.0563,-5.0572,-5.0614,-5.0654,-5.0659,-5.0645,-5.0616,-5.0643,-5.0642,-5.0616,-5.0694,-5.0663,-5.0671,-5.071,-5.0788,-5.0794,-5.08,-5.0854,-5.0868,-5.0879,0,0,0,0,0,0,-5.0569,-5.0577,-5.0562,-5.0624,-5.0639,-5.0646,-5.0678,-5.066,-5.0682,-5.0676,-5.0657,-5.0659,-5.0714,-5.0717,-5.0682,-5.0779,-5.0736,-5.0744,-5.0774,-5.0787,-5.0798,-5.0795,-5.0633,0,0,0,0,0,-5.0587,-5.062,-5.0625,-5.0679,-5.0688,-5.0682,-5.0699,-5.0688,-5.0702,-5.0707,-5.071,-5.0723,-5.0751,-5.0769,-5.0794,-5.0859,-5.0861,-5.0891,-5.0901,-5.0909,-5.0916,-5.0952,-5.0966,-5.0823,-5.0823,-5.0823,0,0,-5.0625,-5.0633,-5.0655,-5.0689,-5.0699,-5.0734,-5.0687,-5.0725,-5.075,-5.0712,-5.076,-5.0763,-5.0777,-5.0835,-5.0861,-5.0839,-5.0957,-5.0917,-5.0924,-5.0926,-5.096,-5.0973,-5.0985,-5.0827,-5.0826,-5.0825,0,0,-5.0711,-5.0721,-5.0768,-5.078,-5.0797,-5.0793,-5.0804,-5.0815,-5.0816,-5.0864,-5.0838,-5.0866,-5.0914,-5.0925,-5.0937,-5.103,-5.1008,-5.1039,-5.1093,-5.1128,-5.1139,-5.1149,-5.1183,-5.1195,-5.1046,-5.1046,-5.1046,0,-5.0755,-5.0806,-5.0794,-5.0834,-5.085,-5.082,-5.0868,-5.0879,-5.0902,-5.0914,-5.089,-5.0951,-5.0958,-5.1019,-5.1042,-5.1052,-5.1065,-5.1038,-5.1139,-5.1149,-5.1158,-5.119,-5.1203,-5.105,-5.105,-5.1049,-5.1049,0,-5.086,-5.0897,-5.0932,-5.0959,-5.0979,-5.1022,-5.1015,-5.1037,-5.1025,-5.1023,-5.1074,-5.1081,-5.1108,-5.1122,-5.1109,-5.1182,-5.1168,-5.1142,-5.1099,-5.1175,-5.1205,-5.1217,-5.1055,-5.1054,-5.1053,-5.1052,0,0,-5.0976,-5.0998,-5.1011,-5.1023,-5.1041,-5.1068,-5.111,-5.1139,-5.1158,-5.1176,-5.1211,-5.1253,-5.123,-5.1243,-5.1232,-5.1263,-5.1337,-5.1232,-5.1232,-5.1252,-5.1419,-5.1439,-5.1453,-5.1322,-5.1325,-5.1327,-5.1418,0,-5.1063,-5.1138,-5.1129,-5.1201,-5.1235,-5.1208,-5.1245,-5.1259,-5.1259,-5.1287,-5.1287,-5.1318,-5.1284,-5.1292,-5.1322,-5.1322,-5.137,-5.1315,-5.1354,-5.1356,-5.1352,-5.1468,-5.1489,-5.1575,-5.1429,-5.1431,-5.1433,0,-5.1174,-5.1199,-5.1274,-5.1289,-5.1303,-5.1336,-5.1363,-5.139,-5.1406,-5.1404,-5.1421,-5.1404,-5.1446,-5.1403,-5.146,-5.1423,-5.1438,-5.1441,-5.1444,-5.1447,-5.1399,-5.1475,-5.1602,-5.1615,-5.1451,-5.1449,-5.1448,0,-5.1252,-5.1304,-5.1357,-5.1368,-5.1386,-5.141,-5.1419,-5.1432,-5.1451,-5.1473,-5.1485,-5.1511,-5.1526,-5.1546,-5.1537,-5.1506,-5.1597,-5.1552,-5.1596,-5.1596,-5.1615,-5.1614,-5.1747,-5.1625,-5.1625,-5.1625,-5.1625,0,-5.135,-5.1397,-5.1393,-5.1425,-5.1477,-5.1466,-5.1518,-5.1523,-5.1536,-5.1568,-5.1545,-5.1576,-5.1562,-5.1591,-5.1584,-5.1633,-5.1639,-5.1639,-5.1636,-5.1641,-5.1641,-5.1651,-5.1645,-5.1628,-5.1628,-5.1627,-5.1626,0,-5.1446,-5.1445,-5.15,-5.1514,-5.1518,-5.1557,-5.1568,-5.1598,-5.1597,-5.1638,-5.1647,-5.1646,-5.1679,-5.1673,-5.1709,-5.1704,-5.1766,-5.1756,-5.1761,-5.1759,-5.1803,-5.1799,-5.1947,-5.1966,-5.1832,-5.1833,-5.1834,0,-5.1508,-5.1545,-5.1564,-5.1585,-5.1596,-5.1629,-5.1649,-5.164,-5.166,-5.1683,-5.171,-5.1742,-5.1767,-5.1822,-5.1823,-5.1851,-5.1842,-5.1891,-5.1845,-5.185,-5.1843,-5.1841,-5.1845,-5.19,-5.1902,-5.1903,-5.1904,0,-5.162,-5.1618,-5.1648,-5.1679,-5.1704,-5.1727,-5.1747,-5.1765,-5.1758,-5.1782,-5.1818,-5.1837,-5.1876,-5.1908,-5.1934,-5.1941,-5.1922,-5.1919,-5.1931,-5.1936,-5.1938,-5.1938,-5.1787,-5.1915,-5.1914,-5.1913,-5.1913,-5.1912,-5.1701,-5.1733,-5.1753,-5.1787,-5.1802,-5.1823,-5.1852,-5.1857,-5.1887,-5.1919,-5.1911,-5.1951,-5.1967,-5.2001,-5.2011,-5.2042,-5.2023,-5.2039,-5.2044,-5.2048,-5.2054,-5.1933,-5.2046,-5.2046,-5.2045,-5.2045,-5.2045,0,-5.1813,-5.1824,-5.1856,-5.1888,-5.1915,-5.1897,-5.1919,-5.1943,-5.1979,-5.1997,-5.2023,-5.2064,-5.2095,-5.21,-5.213,-5.2154,-5.2145,-5.2162,-5.216,-5.2162,-5.2069,-5.2056,-5.2168,-5.2168,-5.2168,-5.2168,-5.2168,-5.2168,-5.1874,-5.1927,-5.1928,-5.1989,-5.2,-5.2041,-5.2055,-5.2074,-5.2088,-5.2136,-5.2163,-5.2167,-5.2179,-5.221,-5.2238,-5.2239,-5.2251,-5.2271,-5.2268,-5.2181,-5.2168,-5.2157,-5.2145,-5.2273,-5.2273,-5.2359,-5.2359,-5.236]}]]